CZ-6A DEB

Last updated on Wed Jun 11 2025 00:02:04 GMT+0000 (Coordinated Universal Time)

1 63923U 25096F 25161.54984632 .00000088 00000+0 27948-4 0 9990 2 63923 85.9925 354.3518 0012565 166.7307 193.4217 14.26984497 4141
UTC large
Height (km)
Speed (km/s)
/
Latitude / Longitude
Inclination (degrees)
Orbital Period (minutes)
Azimuth
Elevation
Range (km)
Doppler Factor

Next 0 passes for location: London (51.5072 / 0.1276)

Sorry there are no passes over London.